Location: Seattle
(47.6064°N, 122.3308°W)
Time: 00:03:45
(UTC-07:00)

STRAND 1 - Pass Details

Date: 05 April 2023
Orbit: 767 x 779 km, 98.4° (Epoch: 02 June)

Event Time Altitude Azimuth Distance (km) Brightness Sun altitude
Rises 05:32:15 0° 121° (ESE) 3,244 ? -11.8°
Reaches altitude 10° 05:35:05 10° 105° (ESE) 2,319 ? -11.4°
Maximum altitude 05:38:44 20° 59° (ENE) 1,727 ? -10.8°
Drops below altitude 10° 05:42:22 10° 14° (NNE) 2,325 ? -10.2°
Sets 05:45:13 0° 358° (N) 3,255 ? -9.8°
